Wind_Speed
13 12 12 12 11 9 7 7 8 8 9 10 12 17 24 26 31 35 32 25 22 22 22 23 27 30 31 33 36 39 41 41 44 43 39 37 37 39 39 38 37 39 38
13 11 11 11 10 10 10 7 6 8 10 10 13 20 23 26 31 35 32 26 27 27 28 32 36 37 36 37 41 42 42 43 47 46 41 40 40 40 40 39 37 37 39
14 12 12 13 12 13 10 7 8 10 9 13 20 20 22 26 31 35 31 29 31 32 35 37 39 40 40 41 42 43 42 45 48 47 44 42 41 42 42 41 40 40 40
15 13 14 14 15 14 11 9 13 12 13 17 18 21 24 30 33 33 32 32 34 34 35 37 40 41 41 41 42 43 42 46 50 48 44 43 44 44 45 44 41 39 37
17 16 16 16 16 14 12 12 14 14 13 15 20 25 28 32 33 33 30 32 33 35 36 38 39 41 42 40 42 42 43 48 49 47 47 47 49 48 41 37 35 32 31
19 19 18 18 18 16 12 15 15 12 12 16 20 24 30 32 30 30 29 30 33 36 37 36 39 41 40 39 41 42 45 49 48 48 50 51 51 43 38 33 32 30 29
21 20 20 21 19 15 12 11 9 9 12 16 21 23 28 32 28 29 30 30 34 36 37 37 38 40 40 39 41 41 46 48 49 51 50 53 45 38 36 35 34 39 33
22 23 24 21 18 14 11 8 6 6 12 16 21 25 27 30 28 29 29 30 33 35 35 36 38 41 39 40 39 42 47 49 51 52 51 48 40 36 37 37 40 47 35
25 26 23 19 17 13 7 2 1 6 10 14 19 25 31 31 29 28 27 31 33 34 34 35 38 39 38 39 39 42 46 49 51 49 50 45 37 37 37 37 37 39 31
28 26 22 19 15 11 8 4 2 6 10 15 19 24 30 33 31 28 26 30 31 33 34 36 36 36 38 39 38 41 45 48 50 46 47 43 35 37 36 36 41 35 32
32 27 24 20 17 15 9 6 7 9 11 15 20 24 28 32 33 27 26 29 30 31 33 34 34 34 37 39 36 40 44 48 48 45 46 41 35 37 35 35 40 36 28
32 28 22 20 18 15 13 11 11 14 14 17 21 24 27 31 35 27 25 28 29 30 31 34 34 34 36 37 34 39 43 46 46 43 44 37 36 36 34 35 39 37 28
27 22 21 21 19 16 16 16 16 18 20 20 22 24 25 31 35 27 25 27 27 28 30 32 34 33 35 34 32 36 40 44 46 42 41 39 34 34 34 36 39 40 30
30 30 28 23 20 22 23 24 22 20 21 21 22 24 25 30 34 26 24 25 25 27 28 31 34 31 32 32 30 33 38 43 43 40 39 40 37 33 33 34 38 39 37
32 31 29 25 23 22 21 19 21 23 22 22 22 21 25 29 32 26 24 24 24 26 26 29 33 30 29 31 28 31 36 40 41 38 36 39 37 33 33 33 32 39 38
34 34 33 28 25 25 24 21 20 21 21 19 20 24 28 30 32 26 24 22 23 25 24 27 31 30 28 28 28 28 31 35 38 36 33 35 37 36 33 33 32 30 35
40 37 36 37 38 35 30 32 24 25 25 24 25 26 30 34 34 26 23 22 22 24 22 24 29 29 27 26 26 25 28 32 35 35 32 32 34 35 34 32 31 30 34
45 42 44 43 46 33 35 35 32 31 30 30 30 30 32 35 35 27 24 21 21 21 21 22 26 28 25 24 22 22 25 28 31 33 31 28 28 29 31 32 31 30 32
46 42 41 48 43 44 42 41 39 36 36 36 37 33 35 37 36 26 24 21 20 20 19 19 23 25 23 23 20 19 22 24 28 29 28 27 24 25 27 26 26 26 28
49 48 51 49 52 51 47 45 43 41 41 41 42 40 39 39 37 26 23 21 20 19 17 18 21 23 22 20 19 19 21 21 24 27 27 25 24 23 24 24 22 22 23
56 58 55 54 53 55 52 50 48 45 43 45 47 44 43 40 36 26 24 21 20 18 16 15 17 21 19 18 17 17 19 19 20 23 25 25 22 22 22 22 22 21 20
50 47 47 48 49 51 53 53 52 50 48 50 49 48 44 39 33 27 25 22 21 18 15 14 15 17 16 18 17 15 16 16 17 19 21 23 23 21 20 19 19 18 18
46 45 44 44 46 48 49 50 50 49 49 52 49 47 40 37 33 28 26 23 21 19 16 13 13 14 14 15 16 16 13 15 14 16 17 19 21 21 19 20 19 16 15
46 45 44 43 44 45 48 49 49 49 50 48 46 43 39 37 32 29 27 26 23 21 18 14 13 15 13 13 14 17 14 13 12 14 14 14 16 18 19 18 17 18 15
43 44 44 46 44 44 45 44 46 46 46 45 46 43 42 39 33 30 30 28 26 24 20 18 15 16 15 11 11 12 14 12 11 11 12 13 12 13 14 15 14 14 15
48 45 44 44 45 44 44 44 45 47 47 46 48 45 44 39 35 32 32 30 29 26 21 21 18 16 16 17 14 12 11 14 13 10 11 10 12 10 11 11 13 12 11
Wind_Direction
197 204 213 209 210 215 210 193 158 124 88 60 29 14 9 0 3 9 3 356 358 359 351 344 350 352 353 352 350 350 346 343 341 341 339 335 331 327 327 326 324 322 327
198 203 206 205 204 207 208 183 160 117 78 46 21 10 4 358 3 5 1 2 3 358 359 355 357 355 352 353 352 349 346 343 342 343 342 339 334 331 329 329 329 332 335
195 202 199 201 199 205 198 178 156 103 62 34 18 10 4 6 4 0 0 5 1 1 359 357 354 351 351 351 350 348 346 343 344 344 346 340 337 336 335 333 330 330 335
200 200 202 197 201 201 189 165 109 84 52 38 23 14 8 7 4 2 2 2 1 359 357 354 350 349 350 350 348 347 346 344 344 348 346 344 342 339 335 330 330 329 330
199 200 203 202 197 190 179 127 97 74 51 28 16 8 6 6 7 3 359 360 359 357 354 352 348 349 348 349 347 348 347 347 349 350 350 349 344 344 342 343 344 343 341
200 199 202 193 186 181 156 111 96 70 36 19 11 4 8 8 7 4 357 358 357 355 351 350 347 349 350 348 347 350 349 349 352 353 354 350 349 354 355 357 1 359 356
202 200 191 184 177 171 133 111 83 47 29 16 5 359 3 7 5 2 356 356 356 353 350 350 349 350 350 347 351 352 351 351 354 358 355 353 359 2 3 3 2 8 4
202 192 183 179 170 155 129 110 66 36 25 15 6 358 360 3 2 360 355 355 355 353 350 351 351 352 350 348 354 355 353 353 357 360 357 360 6 10 9 6 8 8 10
193 184 177 165 161 151 144 148 50 24 9 357 353 353 356 359 359 355 352 355 355 351 352 352 353 353 350 350 355 356 353 356 1 2 1 6 14 12 12 13 9 10 12
181 174 171 172 168 171 191 212 298 349 347 341 343 344 347 352 355 351 349 354 351 350 353 355 355 353 350 351 356 357 355 359 3 5 8 12 19 15 14 17 19 19 17
176 178 181 186 193 201 210 236 274 305 323 332 337 338 340 344 351 347 346 352 350 350 355 359 357 353 351 354 356 358 357 1 5 8 12 16 20 17 17 21 21 24 28
184 187 193 198 205 223 238 252 270 288 304 317 326 330 337 340 346 342 343 349 350 350 356 2 0 356 353 355 356 359 359 3 6 12 14 17 20 16 20 26 23 28 40
200 198 204 211 220 233 251 260 264 280 293 303 312 320 332 336 342 337 339 347 349 349 357 4 4 358 355 356 358 0 0 4 6 13 16 19 19 18 23 30 28 27 36
211 214 217 225 237 242 251 255 259 274 282 290 301 312 325 332 340 333 335 343 346 347 354 2 4 359 357 357 359 1 3 4 6 13 20 22 22 22 30 34 34 34 34
215 217 219 223 233 241 248 258 263 275 282 285 291 312 327 335 337 329 331 339 343 344 352 1 3 0 358 358 358 3 4 4 6 14 22 25 26 29 36 40 40 42 44
221 220 225 227 234 244 247 253 258 269 283 296 307 319 323 329 334 324 326 334 339 338 346 358 2 2 357 355 360 3 5 4 7 13 25 28 31 35 38 43 41 43 47
233 235 229 239 245 237 246 245 251 268 279 289 298 308 315 321 329 318 319 326 334 332 341 353 1 1 358 356 1 360 2 3 7 12 23 32 33 36 41 42 44 49 54
235 238 238 243 249 246 245 255 259 265 274 282 292 299 306 310 319 315 309 317 326 328 334 348 359 1 0 358 2 358 0 2 8 13 20 32 36 33 37 43 44 47 49
236 241 243 245 248 247 245 249 253 259 270 273 283 291 297 301 309 309 299 307 316 321 326 346 358 0 3 359 359 358 359 359 6 11 17 28 36 37 34 34 42 43 43
240 246 258 255 244 243 245 247 252 259 264 269 276 283 289 293 300 298 289 296 303 311 323 340 354 353 2 2 357 358 356 358 1 7 13 21 33 38 38 36 38 46 44
249 251 252 249 246 242 242 249 251 254 260 266 271 277 282 287 292 284 279 285 291 304 318 334 350 349 358 0 355 354 360 357 357 3 10 12 22 37 39 36 35 43 51
253 252 251 249 245 243 245 248 249 251 256 263 267 272 277 280 280 272 271 276 282 295 310 325 342 343 355 359 354 347 349 352 354 357 5 10 13 22 35 40 35 36 44
251 251 251 248 245 243 243 244 247 249 254 259 262 267 271 270 267 261 262 267 271 284 297 311 328 333 356 3 358 345 334 344 348 351 354 7 10 11 19 30 36 35 33
247 249 248 247 246 246 245 244 246 251 254 254 255 260 259 261 257 251 254 259 263 274 288 291 307 317 337 359 9 351 333 335 336 340 344 356 7 11 9 12 22 30 32
248 249 247 249 251 249 250 250 249 248 248 246 247 249 251 254 252 250 251 252 258 266 275 280 289 302 316 335 357 359 343 319 324 322 333 339 347 8 8 3 3 12 18
248 247 247 248 249 250 252 248 247 246 241 239 242 243 245 245 243 243 248 252 253 259 265 270 272 281 297 311 332 347 347 324 314 310 316 326 328 335 358 359 347 348 356
Height
5926 5928 5930 5931 5931 5932 5934 5934 5933 5934 5934 5934 5932 5929 5924 5922 5919 5914 5909 5903 5898 5893 5888 5882 5875 5868 5860 5853 5845 5836 5827 5819 5810 5801 5792 5785 5777 5767 5758 5750 5743 5736 5728
5924 5927 5928 5930 5930 5931 5932 5933 5933 5933 5934 5934 5932 5928 5925 5921 5916 5911 5907 5902 5895 5890 5883 5876 5869 5861 5856 5849 5839 5830 5821 5813 5804 5795 5786 5778 5769 5760 5751 5741 5734 5727 5720
5921 5925 5927 5928 5929 5930 5932 5932 5933 5933 5934 5933 5930 5927 5924 5919 5914 5910 5904 5898 5892 5886 5879 5872 5866 5860 5853 5845 5836 5827 5819 5810 5800 5791 5781 5773 5762 5751 5741 5732 5725 5718 5711
5919 5923 5925 5926 5927 5930 5931 5932 5932 5932 5933 5931 5931 5927 5923 5918 5912 5907 5900 5895 5890 5886 5879 5872 5865 5859 5850 5841 5833 5825 5817 5808 5798 5787 5777 5767 5756 5745 5735 5724 5716 5710 5705
5917 5920 5922 5924 5927 5929 5931 5931 5932 5932 5932 5931 5929 5926 5921 5916 5910 5905 5899 5895 5890 5885 5879 5872 5864 5857 5848 5840 5832 5824 5815 5805 5795 5785 5774 5762 5751 5740 5729 5721 5713 5706 5701
5915 5917 5920 5923 5926 5928 5930 5930 5931 5932 5932 5930 5928 5925 5920 5915 5909 5905 5900 5895 5890 5885 5878 5871 5864 5856 5847 5839 5831 5823 5813 5803 5793 5782 5771 5760 5747 5735 5727 5721 5713 5708 5701
5912 5915 5919 5922 5925 5927 5928 5930 5931 5931 5931 5929 5927 5924 5919 5914 5909 5905 5900 5895 5889 5885 5878 5871 5863 5855 5846 5838 5830 5822 5813 5803 5792 5781 5770 5758 5745 5737 5728 5720 5713 5706 5698
5911 5915 5918 5922 5924 5926 5928 5929 5930 5930 5929 5928 5926 5923 5919 5913 5909 5904 5900 5894 5889 5884 5878 5870 5862 5854 5846 5837 5830 5822 5813 5803 5792 5781 5771 5758 5747 5738 5730 5721 5711 5703 5698
5910 5915 5919 5921 5923 5925 5927 5928 5929 5928 5928 5927 5925 5923 5918 5913 5909 5904 5900 5894 5889 5884 5877 5870 5862 5854 5845 5839 5831 5823 5814 5803 5792 5782 5772 5759 5750 5742 5734 5725 5719 5711 5705
5910 5914 5917 5921 5923 5924 5926 5927 5928 5928 5927 5926 5924 5921 5917 5912 5908 5904 5899 5893 5889 5884 5878 5870 5862 5855 5847 5840 5833 5824 5815 5805 5794 5785 5774 5763 5755 5748 5740 5732 5724 5715 5708
5907 5911 5915 5919 5922 5923 5925 5926 5926 5926 5925 5924 5922 5919 5916 5911 5907 5902 5898 5893 5889 5884 5878 5871 5863 5855 5848 5841 5834 5827 5817 5807 5797 5787 5777 5768 5760 5753 5745 5737 5729 5720 5715
5905 5909 5913 5917 5920 5921 5923 5924 5924 5924 5923 5922 5920 5917 5914 5910 5905 5901 5897 5892 5888 5884 5878 5871 5863 5856 5848 5842 5835 5828 5818 5809 5799 5790 5781 5772 5765 5758 5751 5743 5735 5727 5721
5905 5908 5912 5915 5918 5919 5920 5921 5921 5921 5921 5920 5918 5915 5912 5908 5903 5899 5896 5891 5887 5884 5878 5871 5864 5857 5849 5842 5836 5830 5821 5812 5803 5794 5786 5778 5770 5763 5756 5749 5741 5732 5727
5903 5906 5909 5911 5914 5915 5916 5917 5917 5917 5917 5916 5914 5912 5909 5905 5901 5897 5894 5890 5886 5883 5877 5871 5864 5858 5850 5843 5838 5832 5823 5815 5807 5798 5791 5783 5775 5769 5761 5755 5749 5741 5734
5897 5901 5904 5906 5908 5909 5911 5912 5913 5913 5912 5911 5910 5908 5905 5902 5898 5895 5892 5889 5885 5881 5876 5871 5865 5858 5852 5845 5840 5834 5827 5819 5811 5803 5795 5788 5781 5774 5768 5762 5757 5751 5745
5891 5893 5896 5899 5901 5902 5904 5906 5907 5907 5907 5907 5906 5904 5901 5899 5896 5892 5890 5887 5883 5880 5875 5871 5865 5859 5853 5847 5842 5836 5829 5822 5815 5808 5799 5794 5788 5781 5776 5770 5765 5760 5755
5882 5886 5888 5890 5891 5892 5897 5898 5898 5901 5901 5901 5901 5899 5897 5895 5893 5889 5887 5885 5881 5878 5874 5870 5865 5859 5853 5847 5842 5837 5832 5825 5820 5812 5805 5799 5794 5788 5783 5778 5774 5769 5764
5873 5877 5880 5882 5882 5883 5888 5891 5893 5894 5895 5895 5895 5894 5892 5890 5889 5886 5884 5882 5879 5876 5873 5869 5864 5859 5853 5848 5843 5838 5835 5828 5822 5816 5810 5803 5798 5794 5790 5785 5781 5776 5771
5862 5866 5870 5873 5874 5876 5879 5882 5884 5887 5888 5887 5887 5887 5887 5886 5884 5882 5880 5879 5876 5874 5870 5866 5862 5858 5852 5848 5844 5839 5835 5831 5825 5819 5814 5807 5802 5799 5795 5792 5787 5784 5779
5851 5853 5857 5860 5863 5865 5869 5872 5875 5878 5879 5879 5879 5880 5881 5880 5878 5877 5876 5874 5872 5870 5867 5864 5860 5857 5852 5848 5844 5840 5837 5833 5828 5823 5818 5811 5807 5803 5799 5796 5793 5790 5787
5837 5840 5842 5843 5847 5852 5856 5860 5864 5867 5869 5869 5869 5872 5873 5872 5871 5871 5870 5869 5868 5866 5863 5860 5857 5855 5851 5847 5844 5841 5838 5834 5829 5825 5821 5816 5811 5806 5803 5800 5798 5795 5792
5821 5825 5827 5829 5834 5839 5844 5849 5853 5855 5857 5858 5860 5862 5864 5865 5864 5863 5863 5862 5863 5861 5859 5857 5854 5852 5849 5846 5843 5840 5837 5834 5829 5827 5823 5820 5815 5811 5806 5803 5802 5799 5797
5808 5812 5815 5819 5822 5827 5831 5836 5840 5843 5845 5847 5849 5852 5855 5855 5855 5855 5855 5855 5856 5855 5854 5853 5851 5850 5847 5843 5840 5838 5835 5833 5830 5826 5823 5820 5817 5814 5811 5808 5805 5803 5800
5795 5799 5804 5807 5810 5814 5818 5823 5826 5830 5832 5835 5838 5842 5845 5845 5845 5846 5847 5848 5849 5849 5849 5848 5846 5846 5844 5841 5838 5836 5833 5831 5829 5827 5823 5819 5817 5814 5813 5812 5809 5805 5803
5783 5786 5790 5794 5798 5802 5805 5810 5813 5816 5820 5823 5827 5831 5833 5834 5836 5837 5839 5839 5841 5842 5842 5843 5842 5841 5840 5838 5835 5833 5831 5828 5826 5825 5823 5820 5816 5813 5812 5812 5810 5808 5805
5771 5775 5778 5781 5784 5788 5792 5797 5800 5804 5807 5812 5815 5819 5821 5823 5824 5827 5830 5831 5832 5833 5835 5836 5835 5834 5835 5835 5831 5829 5829 5826 5823 5821 5820 5817 5816 5812 5809 5809 5810 5808 5807